Weather History for Harrisburg, PA

Change the Weather History Date:

Friday, July 5, 2013

  Actual Average Record
Temperature  
Mean Temperature 82 °F -  
Max Temperature 90 °F 83 °F 102 °F (1999)
Min Temperature 75 °F 62 °F 51 °F (1979)
Cooling Degree Days 18    
Growing Degree Days 32 (Base 50)    
Moisture  
Dew Point 70 °F    
Average Humidity 68    
Maximum Humidity 84    
Minimum Humidity 52    
Precipitation  
Precipitation 0.00 in - - ()
Sea Level Pressure  
Sea Level Pressure 30.16 in    
Wind  
Wind Speed 5 mph (SSW)    
Max Wind Speed 12 mph    
Max Gust Speed 18 mph    
Visibility 10 miles    
Events      
Averages and records for this station are not official NWS values.
T = Trace of Precipitation, MM = Missing Value Source: NWS Daily Summary

Daily Weather History Graph

Daily Weather History Graph

Search for Another Location

Airport:

Trip Planner

Search our weather history database for the weather conditions in past years. The results will help you decide how hot, cold, wet, or windy it might be!

Date:

Astronomy

Jul. 05, 2013 Rise Set
Actual Time 5:43 AM EDT 8:40 PM EDT
Civil Twilight 5:11 AM EDT 9:12 PM EDT
Nautical Twilight 4:29 AM EDT 9:53 PM EDT
Astronomical Twilight 3:41 AM EDT 10:41 PM EDT
Moon 3:41 AM EDT (7/5) 6:33 PM EDT (7/5)
Length of Visible Light 16h 01m
Length of Day
14h 56m
Waning Crescent, 6% of the Moon is Illuminated
Jul 5
Waning Crescent
Jul 8
New
Jul 15
First Quarter
Jul 22
Full
Jul 29
Last Quarter

Hourly Weather History & Observations

Time (EDT) Temp. Heat Index Dew Point Humidity Pressure Visibility Wind Dir Wind Speed Gust Speed Precip Events Conditions
12:56 AM 78.1 °F - 69.1 °F 74% 30.20 in 10.0 mi Calm Calm - N/A   Clear
1:56 AM 77.0 °F - 70.0 °F 79% 30.20 in 10.0 mi South 3.5 mph - N/A   Clear
2:56 AM 78.1 °F - 70.0 °F 76% 30.19 in 10.0 mi SSW 5.8 mph - N/A   Clear
3:56 AM 77.0 °F - 70.0 °F 79% 30.19 in 10.0 mi Calm Calm - N/A   Clear
4:56 AM 75.9 °F - 70.0 °F 82% 30.19 in 10.0 mi WNW 3.5 mph - N/A   Clear
5:56 AM 75.0 °F - 70.0 °F 84% 30.20 in 8.0 mi Calm Calm - N/A   Clear
6:56 AM 77.0 °F - 70.0 °F 79% 30.20 in 10.0 mi North 3.5 mph - N/A   Clear
7:56 AM 78.1 °F - 71.1 °F 79% 30.21 in 10.0 mi Variable 4.6 mph - N/A   Clear
8:56 AM 79.0 °F - 71.1 °F 77% 30.21 in 10.0 mi SW 3.5 mph - N/A   Partly Cloudy
9:56 AM 82.0 °F 86.7 °F 72.0 °F 71% 30.20 in 10.0 mi SSW 6.9 mph - N/A   Scattered Clouds
10:56 AM 84.0 °F 89.6 °F 72.0 °F 67% 30.19 in 10.0 mi SSW 8.1 mph - N/A   Scattered Clouds
11:56 AM - - - N/A% 30.19 in - SSW 11.5 mph - N/A   Unknown
12:56 PM 87.1 °F 93.6 °F 72.0 °F 61% 30.18 in 10.0 mi North - - N/A   Partly Cloudy
1:56 PM 88.0 °F 93.8 °F 71.1 °F 57% 30.16 in 10.0 mi SSW 10.4 mph - N/A   Partly Cloudy
2:56 PM 89.1 °F 94.1 °F 70.0 °F 53% 30.15 in 10.0 mi South 11.5 mph 18.4 mph N/A   Partly Cloudy
3:56 PM 90.0 °F 95.4 °F 70.0 °F 52% 30.13 in 10.0 mi SSW 9.2 mph - N/A   Partly Cloudy
4:56 PM 89.1 °F 94.1 °F 70.0 °F 53% 30.11 in 10.0 mi SW 11.5 mph 17.3 mph N/A   Clear
5:56 PM 89.1 °F 95.0 °F 71.1 °F 55% 30.11 in 10.0 mi South 9.2 mph - N/A   Clear
6:56 PM 86.0 °F 91.5 °F 71.1 °F 61% 30.10 in 10.0 mi SSW 5.8 mph - N/A   Clear
7:56 PM 84.9 °F 89.4 °F 70.0 °F 61% 30.11 in 10.0 mi SSW 6.9 mph - N/A   Clear
8:56 PM 82.9 °F 87.0 °F 70.0 °F 65% 30.12 in 10.0 mi SSW 5.8 mph - N/A   Clear
9:56 PM 82.9 °F 86.5 °F 69.1 °F 63% 30.13 in 10.0 mi South 5.8 mph - N/A   Clear
10:56 PM 82.0 °F 85.9 °F 70.0 °F 67% 30.14 in 10.0 mi SSW 5.8 mph - N/A   Clear
11:56 PM 81.0 °F 84.9 °F 71.1 °F 72% 30.14 in 10.0 mi SW 10.4 mph - N/A   Clear